Location: Il Ritiro
(43.4167°N, 13.1333°E)
Time: 08:13:59
(UTC+00:00)

Helios 1B rocket - Pass Details

Date: 05 July 2020
Orbit: 574 x 584 km, 98.1° (Epoch: 05 August)

Event Time Altitude Azimuth Distance (km) Brightness Sun altitude
Rises 23:48:47 0° 11° (N) 2,812 7.4 -23.4°
Reaches altitude 10° 23:50:58 10° 10° (N) 1,906 6.2 -23.3°
Maximum altitude 23:55:05 75° 285° (WNW) 603 2.4 -23.2°
Enters shadow 23:55:08 75° 276° (W) 604 2.4 -23.2°
